Estación de Peumo Norte
Ultimos registro cada 15 minutos 93
| N° | Estación | Fecha / Hora | Temperatura | Humedad | Lluvia | Velocidad | Dirección | Radiación | Presion |
| 93 | Peumo Norte | 04-05-2026 23:00 | 11,5 | 81,7 | 0 | 0 | 107 | 0,6 | 1000,4 |
| 92 | Peumo Norte | 04-05-2026 22:45 | 11,8 | 79,6 | 0 | 0 | 107 | 0,6 | 1000,2 |
| 91 | Peumo Norte | 04-05-2026 22:30 | 12,5 | 77,2 | 0 | 0 | 107 | 0,6 | 1000 |
| 90 | Peumo Norte | 04-05-2026 22:15 | 13 | 77,9 | 0 | 0 | 107 | 0,6 | 999,9 |
| 89 | Peumo Norte | 04-05-2026 22:00 | 12,7 | 77,4 | 0 | 0 | 126 | 0,6 | 999,7 |
| 88 | Peumo Norte | 04-05-2026 21:45 | 13,4 | 75,9 | 0 | 0,5 | 174 | 0,6 | 999,6 |
| 87 | Peumo Norte | 04-05-2026 21:30 | 13,6 | 74 | 0 | 0 | 124 | 0,6 | 999,3 |
| 86 | Peumo Norte | 04-05-2026 21:15 | 13,6 | 76,2 | 0 | 0 | 122 | 0,6 | 999,5 |
| 85 | Peumo Norte | 04-05-2026 21:00 | 13,3 | 78,7 | 0 | 0 | 122 | 0,6 | 999,6 |
| 84 | Peumo Norte | 04-05-2026 20:45 | 12,7 | 80,3 | 0 | 0 | 122 | 0,6 | 999,5 |
| 83 | Peumo Norte | 04-05-2026 20:30 | 12,8 | 81,7 | 0 | 0 | 122 | 0,6 | 999,6 |
| 82 | Peumo Norte | 04-05-2026 20:15 | 12,3 | 81,5 | 0 | 0 | 122 | 0,6 | 999,5 |
| 81 | Peumo Norte | 04-05-2026 20:00 | 12,1 | 79,1 | 0 | 0 | 122 | 0,6 | 999,5 |
| 80 | Peumo Norte | 04-05-2026 19:45 | 13,3 | 75,4 | 0 | 0 | 122 | 0,6 | 999,4 |
| 79 | Peumo Norte | 04-05-2026 19:30 | 13,2 | 77 | 0 | 0 | 122 | 0,6 | 999,4 |
| 78 | Peumo Norte | 04-05-2026 19:15 | 13,6 | 74,1 | 0 | 0 | 122 | 0,6 | 999,2 |
| 77 | Peumo Norte | 04-05-2026 19:00 | 12,8 | 73,9 | 0 | 0 | 126 | 0,6 | 999,2 |
| 76 | Peumo Norte | 04-05-2026 18:45 | 13,8 | 70,1 | 0 | 0 | 128 | 0,6 | 999 |
| 75 | Peumo Norte | 04-05-2026 18:30 | 14,8 | 67,3 | 0 | 0 | 136 | 0,6 | 998,9 |
| 74 | Peumo Norte | 04-05-2026 18:15 | 15,3 | 62,5 | 0 | 0 | 143 | 0,6 | 998,9 |
| 73 | Peumo Norte | 04-05-2026 18:00 | 17,3 | 58,5 | 0 | 0 | 143 | 4,4 | 998,6 |
| 72 | Peumo Norte | 04-05-2026 17:45 | 18,6 | 54,3 | 0 | 0 | 143 | 10,6 | 998,3 |
| 71 | Peumo Norte | 04-05-2026 17:30 | 20,1 | 49,9 | 0 | 0 | 161 | 18,1 | 998,6 |
| 70 | Peumo Norte | 04-05-2026 17:15 | 21,2 | 48,4 | 0 | 0,5 | 178 | 58,1 | 998,6 |
| 69 | Peumo Norte | 04-05-2026 17:00 | 21,4 | 48,7 | 0 | 0,5 | 175 | 94,4 | 998,5 |
| 68 | Peumo Norte | 04-05-2026 16:45 | 22,3 | 45,6 | 0 | 0,5 | 174 | 126,9 | 998,7 |
| 67 | Peumo Norte | 04-05-2026 16:30 | 22,1 | 46,1 | 0 | 0,5 | 180 | 159,4 | 998,8 |
| 66 | Peumo Norte | 04-05-2026 16:15 | 23 | 43,6 | 0 | 0,5 | 174 | 186,9 | 998,6 |
| 65 | Peumo Norte | 04-05-2026 16:00 | 23 | 44,2 | 0 | 0,5 | 164 | 229,4 | 998,9 |
| 64 | Peumo Norte | 04-05-2026 15:45 | 22 | 47,7 | 0 | 0,5 | 122 | 236,9 | 999,4 |
| 63 | Peumo Norte | 04-05-2026 15:30 | 22,8 | 48,9 | 0 | 0,5 | 154 | 353,1 | 999,5 |
| 62 | Peumo Norte | 04-05-2026 15:15 | 20,8 | 54,5 | 0 | 0,5 | 146 | 368,1 | 999,8 |
| 61 | Peumo Norte | 04-05-2026 15:00 | 20,5 | 55,4 | 0 | 0,5 | 124 | 250,6 | 999,9 |
| 60 | Peumo Norte | 04-05-2026 14:45 | 20,2 | 54,7 | 0 | 0 | 167 | 248,1 | 1000 |
| 59 | Peumo Norte | 04-05-2026 14:30 | 20 | 53,1 | 0 | 0,5 | 167 | 359,4 | 1000,3 |
| 58 | Peumo Norte | 04-05-2026 14:15 | 19,6 | 54,3 | 0 | 0 | 150 | 245,6 | 1000,5 |
| 57 | Peumo Norte | 04-05-2026 14:00 | 19,1 | 58,7 | 0 | 0 | 150 | 213,1 | 1000,8 |
| 56 | Peumo Norte | 04-05-2026 13:45 | 18,6 | 55,6 | 0 | 0 | 147 | 198,1 | 1001,1 |
| 55 | Peumo Norte | 04-05-2026 13:30 | 18 | 57,7 | 0 | 0 | 146 | 225,6 | 1001,2 |
| 54 | Peumo Norte | 04-05-2026 13:15 | 17,8 | 60,5 | 0 | 0 | 149 | 175,6 | 1001,6 |
| 53 | Peumo Norte | 04-05-2026 13:00 | 17,2 | 63,2 | 0 | 0 | 166 | 238,1 | 1001,6 |
| 52 | Peumo Norte | 04-05-2026 12:45 | 16,6 | 61,1 | 0 | 0 | 160 | 206,9 | 1001,9 |
| 51 | Peumo Norte | 04-05-2026 12:30 | 16,8 | 64,2 | 0 | 0 | 159 | 199,4 | 1002 |
| 50 | Peumo Norte | 04-05-2026 12:15 | 16,1 | 63,8 | 0 | 0 | 168 | 184,4 | 1002,2 |
| 49 | Peumo Norte | 04-05-2026 12:00 | 16 | 65,3 | 0 | 0 | 168 | 181,9 | 1002,3 |
| 48 | Peumo Norte | 04-05-2026 11:45 | 15,4 | 67,5 | 0 | 0 | 168 | 173,1 | 1002,4 |
| 47 | Peumo Norte | 04-05-2026 11:30 | 14,9 | 70,4 | 0 | 0 | 215 | 188,1 | 1002,5 |
| 46 | Peumo Norte | 04-05-2026 11:15 | 14,2 | 73 | 0 | 0 | 225 | 166,9 | 1002,4 |
| 45 | Peumo Norte | 04-05-2026 11:00 | 14 | 72,9 | 0 | 0 | 225 | 128,1 | 1002,6 |
| 44 | Peumo Norte | 04-05-2026 10:45 | 13,6 | 75,5 | 0 | 0 | 225 | 104,4 | 1002,7 |
| 43 | Peumo Norte | 04-05-2026 10:30 | 13,2 | 79,4 | 0 | 0 | 225 | 111,9 | 1002,9 |
| 42 | Peumo Norte | 04-05-2026 10:15 | 12,6 | 85,6 | 0 | 0 | 225 | 129,4 | 1002,9 |
| 41 | Peumo Norte | 04-05-2026 10:00 | 11,8 | 89,3 | 0 | 0 | 218 | 115,6 | 1002,8 |
| 40 | Peumo Norte | 04-05-2026 09:45 | 11,2 | 91 | 0 | 0 | 190 | 111,9 | 1002,6 |
| 39 | Peumo Norte | 04-05-2026 09:30 | 10,9 | 92,4 | 0 | 0 | 153 | 106,9 | 1002,4 |
| 38 | Peumo Norte | 04-05-2026 09:15 | 10,1 | 93,1 | 0 | 0 | 153 | 93,1 | 1002,4 |
| 37 | Peumo Norte | 04-05-2026 09:00 | 9,4 | 93,6 | 0 | 0 | 153 | 86,9 | 1002,2 |
| 36 | Peumo Norte | 04-05-2026 08:45 | 8,7 | 93,5 | 0 | 0 | 153 | 58,1 | 1002,2 |
| 35 | Peumo Norte | 04-05-2026 08:30 | 8,2 | 93,5 | 0 | 0 | 153 | 29,4 | 1002,3 |
| 34 | Peumo Norte | 04-05-2026 08:15 | 8 | 93,2 | 0 | 0 | 153 | 21,9 | 1002,1 |
| 33 | Peumo Norte | 04-05-2026 08:00 | 7,8 | 93 | 0 | 0 | 153 | 11,9 | 1002,1 |
| 32 | Peumo Norte | 04-05-2026 07:45 | 7,3 | 92,9 | 0 | 0 | 153 | 3,1 | 1002 |
| 31 | Peumo Norte | 04-05-2026 07:30 | 7 | 92,6 | 0 | 0 | 153 | 0,6 | 1002,2 |
| 30 | Peumo Norte | 04-05-2026 07:15 | 6,4 | 92,4 | 0 | 0 | 153 | 0,6 | 1002,3 |
| 29 | Peumo Norte | 04-05-2026 07:00 | 6,1 | 92,2 | 0 | 0 | 153 | 0,6 | 1002,1 |
| 28 | Peumo Norte | 04-05-2026 06:45 | 6 | 91,5 | 0 | 0 | 153 | 0,6 | 1002 |
| 27 | Peumo Norte | 04-05-2026 06:30 | 5,9 | 90,9 | 0 | 0 | 153 | 0,6 | 1001,8 |
| 26 | Peumo Norte | 04-05-2026 06:15 | 6,6 | 90,7 | 0 | 0 | 153 | 0,6 | 1001,6 |
| 25 | Peumo Norte | 04-05-2026 06:00 | 6,2 | 90,2 | 0 | 0 | 153 | 0,6 | 1001,6 |
| 24 | Peumo Norte | 04-05-2026 05:45 | 6,7 | 89,7 | 0 | 0 | 153 | 0,6 | 1001,5 |
| 23 | Peumo Norte | 04-05-2026 05:30 | 6,5 | 88,9 | 0 | 0 | 153 | 0,6 | 1001,6 |
| 22 | Peumo Norte | 04-05-2026 05:15 | 7,8 | 88,3 | 0 | 0 | 153 | 0,6 | 1001,4 |
| 21 | Peumo Norte | 04-05-2026 05:00 | 8,3 | 88,1 | 0 | 0 | 153 | 0,6 | 1001,3 |
| 20 | Peumo Norte | 04-05-2026 04:45 | 8,3 | 86,7 | 0 | 0 | 153 | 0,6 | 1001,2 |
| 19 | Peumo Norte | 04-05-2026 04:30 | 9,2 | 84,7 | 0 | 0 | 153 | 0,6 | 1001,2 |
| 18 | Peumo Norte | 04-05-2026 04:15 | 9,4 | 84,6 | 0 | 0 | 153 | 0,6 | 1001,4 |
| 17 | Peumo Norte | 04-05-2026 04:00 | 9,5 | 83,7 | 0 | 0 | 153 | 0,6 | 1001,4 |
| 16 | Peumo Norte | 04-05-2026 03:45 | 9,7 | 82,6 | 0 | 0 | 153 | 0,6 | 1001,5 |
| 15 | Peumo Norte | 04-05-2026 03:30 | 10,3 | 80,2 | 0 | 0 | 153 | 0,6 | 1001,7 |
| 14 | Peumo Norte | 04-05-2026 03:15 | 10,6 | 79,6 | 0 | 0 | 153 | 0,6 | 1001,9 |
| 13 | Peumo Norte | 04-05-2026 03:00 | 10,7 | 79,3 | 0 | 0 | 59 | 0,6 | 1001,9 |
| 12 | Peumo Norte | 04-05-2026 02:45 | 10,8 | 79,6 | 0 | 0 | 29 | 0,6 | 1002,2 |
| 11 | Peumo Norte | 04-05-2026 02:30 | 10,3 | 82,1 | 0 | 0 | 29 | 0,6 | 1002,4 |
| 10 | Peumo Norte | 04-05-2026 02:15 | 9,9 | 82,6 | 0 | 0 | 29 | 0,6 | 1002,5 |
| 9 | Peumo Norte | 04-05-2026 02:00 | 10 | 81,6 | 0 | 0 | 29 | 0,6 | 1002,6 |
| 8 | Peumo Norte | 04-05-2026 01:45 | 10,2 | 80,5 | 0 | 0 | 63 | 0,6 | 1002,3 |
| 7 | Peumo Norte | 04-05-2026 01:30 | 10,8 | 79,7 | 0 | 0 | 90 | 0,6 | 1001,9 |
| 6 | Peumo Norte | 04-05-2026 01:15 | 10,6 | 80,9 | 0 | 0 | 90 | 0,6 | 1002,4 |
| 5 | Peumo Norte | 04-05-2026 01:00 | 10,1 | 80,5 | 0 | 0 | 90 | 0,6 | 1002,4 |
| 4 | Peumo Norte | 04-05-2026 00:45 | 10,5 | 80,8 | 0 | 0 | 90 | 0,6 | 1002,5 |
| 3 | Peumo Norte | 04-05-2026 00:30 | 10,2 | 79,9 | 0 | 0 | 90 | 0,6 | 1002,8 |
| 2 | Peumo Norte | 04-05-2026 00:15 | 10,7 | 80,2 | 0 | 0 | 90 | 0,6 | 1003 |
| 1 | Peumo Norte | 04-05-2026 00:00 | 10,5 | 80,5 | 0 | 0 | 90 | 0,6 | 1003,2 |